Simultaneous Nadir Overpasses (SNOs) Predictions

Prediction of SNOs between NPP and TERRA Satellite Orbit:

Table of predicted SNOs for the next 14.0 days since TLE Epoch: 8/24/2014
Index Date (NPP) Time (NPP) Lat,Lon (NPP) SZA (NPP ) Date (TERRA) Time (TERRA) Lat,Lon (TERRA) SZA (TERRA ) Distance(km) Time Diff (sec)
1 08/25/2014 05:42:59 -69.16, -86.29 121.73 08/25/2014 05:43:56 -69.15, -86.27 121.74 0.94 57
2 08/25/2014 06:33:43 69.01, 81.22 58.14 08/25/2014 06:33:24 68.99, 81.17 58.12 3.21 19
3 08/25/2014 07:24:13 -68.30,-110.51 122.57 08/25/2014 07:23:03 -68.38,-111.96 122.48 60.15 70
4 08/27/2014 21:59:58 -69.09, 29.57 120.87 08/27/2014 22:00:27 -69.11, 29.55 120.85 2.30 29
5 08/27/2014 22:50:43 69.00,-163.00 59.06 08/27/2014 22:49:54 69.00,-162.94 59.06 2.23 49
6 08/30/2014 13:26:16 69.15, -22.07 60.14 08/30/2014 13:27:28 69.16, -22.15 60.14 2.81 72
7 08/30/2014 14:16:58 -69.08, 145.35 119.93 08/30/2014 14:16:58 -69.05, 145.35 119.95 2.75 0
8 08/30/2014 15:07:39 68.78, -46.93 59.79 08/30/2014 15:06:27 68.83, -47.29 59.84 15.33 72
9 09/02/2014 05:43:15 69.15, 93.70 61.10 09/02/2014 05:43:57 69.14, 93.71 61.10 0.88 42
10 09/02/2014 06:33:56 -69.02, -98.80 119.02 09/02/2014 06:33:27 -69.04, -98.79 119.00 2.83 29
11 09/04/2014 21:09:42 -69.86, 41.12 117.21 09/04/2014 21:10:51 -69.73, 42.73 117.35 63.61 69
12 09/04/2014 22:00:14 69.09,-150.46 62.03 09/04/2014 22:00:27 69.12,-150.44 62.05 2.66 13
13 09/04/2014 22:50:55 -68.96, 17.04
